SCP
3 3 3 3 2 2 2 3 3 3 3 3 3 3 3 2 2 2 2 2 2 2 2 2 2 2 2 2 1 1 1 1 1 0 0 0 0 0 0 0 0 0 0
2 2 2 2 2 2 2 2 2 2 2 2 2 2 2 2 2 2 2 2 2 2 2 2 2 2 2 2 1 1 1 1 1 0 0 0 0 0 0 0 0 0 0
2 1 1 1 1 1 1 1 1 1 1 2 2 2 2 2 2 2 2 2 2 2 2 2 2 2 2 1 1 1 1 1 1 0 0 0 0 0 0 0 0 0 0
1 1 1 1 1 1 1 1 1 1 1 1 1 1 1 1 2 2 2 2 2 2 2 2 2 2 2 1 1 1 1 1 1 0 0 0 0 0 0 0 0 0 0
0 0 0 0 1 1 1 1 1 1 1 1 1 1 1 1 1 1 1 1 1 1 2 2 2 1 1 1 1 1 1 1 1 0 0 0 0 0 0 0 0 0 0
0 0 0 0 0 1 1 1 1 1 1 1 1 1 1 1 1 1 1 1 1 1 1 1 1 1 1 1 1 1 1 1 0 0 0 0 0 0 0 0 0 0 0
0 0 0 0 0 0 1 1 1 1 1 1 1 1 1 0 0 0 1 1 1 1 1 1 1 1 1 1 1 1 1 0 0 0 0 0 0 0 0 0 0 0 0
0 0 0 0 0 0 0 1 1 1 1 1 1 0 0 0 0 0 0 0 1 1 1 1 1 1 1 1 1 1 0 0 0 0 0 0 0 0 0 0 0 0 0
0 0 0 0 0 0 0 0 1 1 1 1 1 0 0 0 0 0 0 0 0 0 0 0 0 0 0 1 0 0 0 0 0 0 0 0 0 0 0 0 0 0 0
0 0 0 0 0 0 0 0 0 0 0 0 0 0 0 0 0 0 0 0 0 0 0 0 0 0 0 0 0 0 0 0 0 0 0 0 0 0 0 0 0 0 0
0 0 0 0 0 0 0 0 0 0 0 0 0 0 0 0 0 0 0 0 0 0 0 0 0 0 0 0 0 0 0 0 0 0 0 0 0 0 0 0 0 0 0
0 0 0 0 0 0 0 0 0 0 0 0 0 0 0 0 0 0 0 0 0 0 0 0 0 0 0 0 0 0 0 0 0 0 0 0 0 0 0 0 0 0 0
0 0 0 0 0 0 0 0 0 0 0 0 0 0 0 0 0 0 0 0 0 0 0 0 0 0 0 0 0 0 0 0 0 0 0 0 0 0 0 0 0 0 0
0 0 0 0 0 0 0 0 0 0 0 0 0 0 0 0 0 0 0 0 0 0 0 0 0 0 0 0 0 0 0 0 0 0 0 0 0 0 0 0 0 0 0
0 0 0 0 0 0 0 0 0 0 0 0 0 0 0 0 0 0 0 0 0 0 0 0 0 0 0 0 0 0 0 0 0 0 0 0 0 0 0 0 0 0 0
0 0 0 0 0 0 0 0 0 0 0 0 0 0 0 0 0 0 0 0 0 0 0 0 0 0 0 0 0 0 0 0 0 0 0 0 0 0 0 0 0 0 0
0 0 0 0 0 0 0 0 0 0 0 0 0 0 0 0 0 0 0 0 0 0 0 0 0 0 0 0 0 0 0 0 0 0 0 0 0 0 0 0 0 0 0
0 0 0 0 0 0 0 0 0 0 0 0 0 0 0 0 0 0 0 0 0 0 0 0 0 0 0 0 0 0 0 0 0 0 0 0 0 0 0 0 0 0 0
0 0 0 0 0 0 0 0 0 0 0 0 0 0 0 0 0 0 0 0 0 0 0 0 0 0 0 0 0 0 0 0 0 0 0 0 0 0 0 0 0 0 0
0 0 0 0 0 0 0 0 0 0 0 0 0 0 0 0 0 0 0 0 0 0 0 0 0 0 0 0 0 0 0 0 0 0 0 0 0 0 0 0 0 0 0
0 0 0 0 0 0 0 0 0 0 0 0 0 0 0 0 0 0 0 0 0 0 0 0 -0 0 -0 -0 -0 0 0 0 0 0 0 0 0 0 0 0 0 0 0
-0 -0 0 0 0 0 0 0 0 0 0 0 0 0 0 0 0 0 0 0 0 0 0 0 0 0 0 0 0 0 0 0 0 0 0 0 0 0 0 0 0 0 0
-0 -0 -0 0 0 0 0 0 0 0 0 0 0 0 0 0 0 0 0 0 0 0 0 0 0 0 0 0 0 0 0 0 0 0 0 0 0 0 0 0 0 0 0
0 0 0 0 0 0 0 0 0 0 0 0 0 0 0 0 0 0 0 0 0 0 0 0 0 0 0 0 0 0 0 0 0 0 0 0 0 0 0 0 0 0 0
0 0 0 0 0 0 0 0 0 0 0 0 0 0 0 0 0 0 0 0 0 0 0 0 0 0 0 0 0 0 0 0 0 0 0 0 0 0 0 0 0 0 0
0 0 0 0 0 0 0 0 0 0 0 0 0 0 0 0 0 0 0 0 0 0 0 0 0 0 0 0 0 0 0 0 0 0 0 0 0 0 0 0 0 0 0
Wind_Speed
7 8 9 9 9 7 5 4 3 2 1 2 3 3 4 3 4 4 5 5 5 6 6 6 6 5 5 5 4 3 3 3 2 1 3 4 5 5 5 4 4 4 5
7 8 8 8 8 6 5 4 2 2 3 3 3 3 3 3 4 4 5 6 6 6 6 6 5 5 4 5 5 4 3 3 3 3 2 3 4 3 3 2 2 3 3
8 6 7 7 6 6 5 4 2 1 1 1 1 2 2 2 2 3 4 5 6 6 6 6 6 6 6 6 6 5 6 5 4 4 4 3 4 3 3 2 1 2 2
7 6 6 6 5 4 4 4 3 2 1 1 0 1 2 3 4 4 4 5 5 6 7 7 7 7 6 6 7 7 5 5 4 3 4 4 3 2 3 3 2 2 2
6 6 6 6 5 5 4 4 3 2 2 1 1 1 2 3 3 4 5 5 5 5 6 6 6 6 6 7 7 6 6 5 5 4 3 3 2 3 3 3 3 3 2
6 6 6 5 4 4 3 3 3 2 2 1 1 1 2 4 4 5 5 4 4 4 5 5 5 6 6 7 7 6 7 6 6 4 4 3 3 3 3 3 2 2 3
7 7 7 6 6 5 4 3 3 2 2 1 1 1 2 3 4 5 5 5 4 4 5 5 5 5 6 6 6 6 6 6 6 5 4 4 3 3 3 2 2 1 2
8 8 9 8 7 6 5 5 4 3 3 2 2 2 2 2 3 4 4 5 4 5 5 5 5 5 6 6 5 5 5 5 5 5 4 3 3 3 3 3 3 1 1
9 9 8 8 7 7 6 6 5 4 3 3 2 2 2 2 3 4 4 4 4 5 5 5 4 5 5 5 5 4 4 4 4 4 4 3 2 2 3 3 3 4 2
8 7 7 7 6 6 6 5 6 5 4 3 2 2 1 2 2 3 4 4 5 4 3 3 3 3 3 4 3 3 3 3 3 3 3 2 1 2 2 2 2 2 3
6 5 5 5 6 5 5 5 5 5 4 4 3 2 1 1 1 2 3 3 3 3 3 2 2 1 1 1 2 3 3 3 3 3 5 4 3 3 2 3 3 2 3
2 2 4 4 4 5 5 6 6 5 5 4 4 3 2 1 0 1 2 2 3 3 3 3 3 2 2 1 2 3 4 5 5 6 6 5 5 5 4 4 4 4 4
7 5 3 2 4 5 5 6 6 6 5 5 4 3 3 2 2 1 2 2 2 3 3 3 3 3 2 3 4 5 7 7 7 7 8 6 7 7 5 5 5 5 6
10 9 7 6 5 5 5 6 6 6 6 5 5 5 5 4 3 2 1 1 1 1 2 2 2 3 3 5 6 8 8 8 8 6 7 6 6 6 6 7 7 7 7
16 14 11 10 8 7 6 5 6 6 6 6 6 6 5 4 4 3 2 1 1 1 0 1 2 3 3 5 7 8 9 8 8 7 7 7 8 8 7 7 6 7 6
16 15 15 14 13 11 9 7 7 7 6 7 7 6 6 5 5 4 3 2 1 0 1 2 2 3 3 7 9 8 7 7 7 7 6 7 8 11 12 11 10 8 7
13 14 13 13 14 13 11 9 9 7 7 8 7 7 7 7 6 6 4 3 2 2 2 2 3 4 4 8 10 10 7 6 6 5 5 5 6 6 6 8 10 9 9
12 12 12 13 14 14 12 11 9 7 8 8 8 8 8 8 7 6 6 5 3 3 3 3 4 4 5 9 11 11 7 6 5 5 6 6 5 5 6 7 7 6 5
8 8 9 9 11 13 13 13 11 8 7 8 8 9 9 9 9 8 7 5 4 4 4 4 5 5 5 9 11 10 6 6 6 5 5 7 6 9 11 8 7 6 5
8 8 8 8 10 11 12 12 12 9 8 8 8 8 9 10 11 10 8 5 5 5 5 5 5 6 5 9 12 11 6 7 5 4 5 7 9 10 11 7 6 6 3
10 9 9 8 8 9 10 11 10 11 11 10 8 7 9 11 11 10 7 6 6 6 6 6 5 5 6 8 12 12 6 7 6 4 3 3 10 11 11 8 5 4 4
11 10 8 8 8 8 8 10 10 11 12 11 9 8 8 9 10 10 9 8 8 8 7 6 5 3 4 6 9 11 10 9 7 5 4 4 8 10 9 6 7 10 8
11 9 9 10 8 7 7 9 11 10 11 12 10 8 8 9 9 11 11 9 9 8 7 7 7 5 3 4 9 11 12 13 6 5 8 8 8 7 5 7 9 7 5
11 10 9 10 10 9 8 9 10 9 9 11 10 7 7 8 9 9 10 10 10 9 9 8 8 6 5 4 4 4 6 9 7 5 6 6 5 4 3 4 4 3 3
9 9 9 10 12 10 9 9 8 8 9 10 10 7 6 7 9 10 10 12 11 12 11 10 10 10 8 9 12 9 6 6 6 6 3 2 2 2 2 2 2 2 3
10 9 10 11 12 11 10 9 8 7 8 8 8 6 6 6 7 8 7 8 9 15 16 14 12 10 12 15 16 15 14 13 14 8 4 3 3 3 3 2 2 2 2
Wind_Direction
98 88 87 87 81 76 85 100 109 105 125 224 238 245 250 252 257 259 257 248 231 222 213 215 211 212 217 217 211 207 223 232 211 256 290 283 262 257 260 265 281 297 302
94 85 86 84 89 92 92 93 95 128 172 208 232 237 245 248 242 256 263 252 244 232 223 217 213 214 219 219 217 204 199 219 195 192 243 301 313 286 260 261 270 301 320
115 104 95 95 97 97 106 111 112 113 170 220 259 299 304 302 292 273 264 257 247 239 230 226 221 218 213 222 221 211 206 219 218 197 189 212 249 298 306 291 297 329 339
126 126 121 118 121 139 144 148 157 158 177 160 166 273 280 276 271 271 269 267 251 243 236 228 219 218 215 217 218 215 209 207 222 221 217 211 195 218 294 305 301 320 335
148 150 154 157 162 167 165 165 161 172 186 175 188 228 265 267 281 289 288 281 268 255 247 234 226 225 222 221 219 213 206 206 212 208 203 215 217 207 222 279 309 326 316
173 176 182 179 186 187 177 165 158 180 196 188 196 222 270 285 299 301 297 290 280 272 264 251 235 232 227 223 220 215 210 211 211 207 197 188 191 195 196 230 268 297 302
189 192 195 197 203 201 193 181 171 199 214 191 212 246 267 278 283 291 293 292 286 280 271 261 245 238 232 226 219 211 208 205 207 204 201 196 198 181 175 187 222 269 304
203 204 203 201 203 201 191 184 187 207 211 202 236 260 275 279 285 290 289 287 281 277 274 264 249 241 232 226 213 207 206 201 204 206 193 194 203 186 178 171 168 174 330
211 211 209 203 199 192 190 190 187 193 204 212 233 261 275 284 294 302 302 296 290 288 283 271 256 241 227 212 196 200 206 197 193 193 190 181 189 176 178 169 164 156 154
219 214 205 197 193 191 190 182 179 188 200 203 212 217 243 276 294 307 311 309 305 304 301 282 262 247 229 212 201 198 194 177 178 172 157 147 152 146 141 144 147 148 146
228 217 208 200 191 185 180 181 186 188 195 199 197 191 220 262 308 311 310 312 318 325 329 327 320 316 294 211 174 172 159 155 145 130 126 116 109 99 91 94 99 101 113
309 238 214 202 199 200 197 194 195 194 197 195 185 182 188 194 249 305 313 317 330 339 352 6 13 27 39 53 130 142 137 126 120 111 106 101 96 80 75 82 85 86 93
10 355 328 270 238 228 217 207 202 198 194 184 179 184 190 191 208 252 291 318 335 342 360 17 20 24 40 66 83 96 97 99 102 103 101 95 93 84 78 81 82 81 83
5 357 342 324 302 272 243 219 212 202 192 185 184 192 200 198 201 217 244 287 321 350 8 19 33 42 55 76 85 90 93 92 89 88 93 92 94 96 93 88 87 91 85
5 0 350 337 325 311 286 256 226 211 195 188 194 202 201 194 189 194 205 224 271 279 349 58 55 63 77 88 98 101 103 99 95 86 84 88 93 95 95 98 96 94 90
359 355 352 347 337 326 311 285 255 225 200 196 201 198 189 189 191 192 195 200 216 191 111 89 85 84 94 113 112 111 107 107 107 101 89 83 77 83 85 91 97 104 105
351 349 346 339 334 323 316 305 279 246 211 205 201 193 189 191 193 190 188 194 187 153 122 103 102 95 116 127 122 120 117 113 115 114 103 94 83 82 86 80 75 72 82
339 339 338 336 332 327 321 312 301 263 227 211 204 195 191 192 188 185 189 192 180 170 159 140 128 112 123 131 128 125 113 107 106 105 107 105 92 94 100 89 74 60 54
318 318 318 321 325 329 327 324 313 289 249 225 214 202 194 191 187 188 189 184 171 168 161 150 143 129 129 134 134 125 111 104 96 98 104 107 97 104 102 94 84 59 31
314 312 313 314 321 324 330 325 321 314 290 261 235 213 198 191 190 190 185 175 167 167 158 153 152 144 140 139 136 129 122 114 107 91 86 98 106 105 103 101 96 79 39
297 300 304 306 307 314 324 323 320 315 302 296 269 232 204 196 190 184 177 169 165 161 160 156 157 155 151 140 139 140 135 138 134 126 116 106 109 104 103 103 100 112 114
290 290 289 290 293 301 312 312 308 311 310 301 283 248 213 203 192 180 177 171 166 164 162 157 155 162 159 146 143 146 151 151 143 148 152 141 120 109 103 91 93 99 94
287 286 282 284 287 286 288 297 299 305 313 304 281 259 228 209 189 180 179 174 171 171 171 168 167 169 168 162 155 154 159 158 147 157 162 153 129 105 87 76 84 85 86
285 283 282 283 285 283 276 276 289 298 306 304 289 262 236 215 193 183 180 179 178 177 176 175 174 168 163 166 159 146 147 149 137 137 150 139 115 93 81 63 66 81 106
289 285 281 280 280 281 277 274 282 291 296 297 294 271 247 223 197 186 186 184 186 184 179 181 177 173 179 189 173 159 158 159 153 132 104 98 97 91 73 65 68 85 97
297 294 290 284 283 282 277 275 273 280 288 291 299 283 257 232 200 183 177 190 181 183 182 179 176 185 185 174 176 175 172 165 153 136 143 162 168 170 162 149 143 139 142